Regional Weather Roundup
Issued by NWS New Orleans/Baton Rouge, LA

Home | Current Version | Previous Version | Graphics & Text | Print | Product List | Glossary On
Versions: 1 2 3 4 5 6 7 8 9 10 11 12 13 14 15 16 17 18 19 20 21 22 23 24 25 26 27 28 29 30 31 32 33 34 35 36 37 38 39 40 41 42 43 44 45 46 47 48 49 50
112
ASUS44 KLIX 200810
RWRLIX
NEW ORLEANS REGIONAL WEATHER ROUNDUP
NATIONAL WEATHER SERVICE NEW ORLEANS LA
200 AM CST SAT DEC 20 2014

NOTE: "FAIR" INDICATES FEW OR NO CLOUDS BELOW 12,000 FEET WITH NO
      SIGNIFICANT WEATHER AND/OR OBSTRUCTIONS TO VISIBILITY.
      SKY/WX - SKY CONDITION AND SIGNIFICANT WEATHER.
      TMP - AIR TEMPERATURE.     DP    - DEWPOINT TEMPERATURE.
      RH  - RELATIVE HUMIDITY.   PRES  - PRESSURE.
      HI  - HEAT INDEX.          WCI   - WIND CHILL INDEX.

*  THESE STATIONS ARE NOT NWS OR FAA STATIONS AND ARE NOT UNDER
   NWS QUALITY CONTROL.

LAZ038-040-048-061>063-065>067-069-200900-
SOUTHEAST LOUISIANA

CITY           SKY/WX    TMP DP  RH WIND       PRES   REMARKS
N.O. AUDUBON     N/A     50  50 100 MISG        N/A
N.O. INTL ARPT MOCLDY    52  50  93 NE9       30.06S
N.O. LAKEFRONT LGT RAIN  53  50  89 NE17      30.06F FOG
N.O. DOWNTOWN* CLOUDY    50  45  81 CALM      30.06F
SLIDELL        LGT RAIN  49  47  93 NE9       30.05F
BATON ROUGE    CLOUDY    48  46  93 N6        30.10S
BOOTHVILLE     CLOUDY    58  57  97 NE8       30.00F
BELLE CHASSE   LGT RAIN  50  48  93 NE9       30.06S FOG
BOGALUSA*      LGT RAIN  48  45  89 N7        30.10F
GALLIANO*      CLOUDY    54  53  96 MISG      30.03F
NEW ROADS*     CLOUDY    47  46  96 N10G16    30.12R
GONZALES*      CLOUDY    49  49 100 N9        30.07S
HAMMOND*       NOT AVBL
HOUMA*         CLOUDY    50  49  97 NE9       30.04S
PORT FOURCHON* CLOUDY    55  54  94 NE18      30.03F FOG

$$

MSZ070-080>082-200900-
SOUTHERN MISSISSIPPI

CITY           SKY/WX    TMP DP  RH WIND       PRES   REMARKS
MCCOMB         CLOUDY    46  43  89 NE7       30.12R FOG
GULFPORT       RAIN      48  46  93 NE10      30.07R FOG
BILOXI         HVY RAIN  48  48 100 NE7       30.08R FOG
PASCAGOULA     HVY RAIN  47  46  97 N13       30.08R FOG

$$

COASTAL OBSERVATIONS
LAKE AND NEARSHORE STATIONS

STATION/POSITION TIME  TEMP    WIND        PRES    WAVE
                       AIR SEA DIR/SP/G            HT/PER
                 (UTC) (F)     (DEG/KT/KT) (MB)    (FT/S)
PASCAGOULA       0800   48      30/  9/ 12 1017.5
WAVELAND YACHT   0800   49      20/ 12/ 14 1017.2
GRAND ISLE       0800   56 62   30/ 15/ 20 1016.9
SOUTHWEST PASS   0800   59                 1015.4
NEW CANAL        0800   53 56   60/ 17/ 19 1017.6
SHELL BEACH      0800   51 58   20/ 19/ 24 1017.6

OFFSHORE STATIONS

STATION/POSITION TIME  TEMP    WIND        PRES    WAVE
                       AIR SEA DIR/SP/G            HT/PER
                 (UTC) (F)     (DEG/KT/KT) (MB)    (FT/S)
64 S DAUPHIN ISL 0800   68 75  110/ 21/ 25 1015.2    5/ 6

$$




USA.gov is the U.S. government's official web portal to all federal, state and local government web resources and services.